Flag for Iran Weather past 2 weeks in Behbahan, Iran

Now
75 °F

Clear.


Feels Like: 77 °F
Forecast: 77 / 112 °F
Wind: No wind

Location: Gach Saran Du Gunbadan

Current Time: Sep 3, 2014 at 6:59:48 AM

Latest Report: Sep 3, 2014 at 6:30 AM


Visibility: 10 mi

Pressure: 29.74 "Hg

Humidity: 39%

Dew point: 48 °F

Location of BehbahanLocation

Historic Weather in Behbahan — Graph

°F

Behbahan temperature yesterday

Maximum temperature yesterday: 106 °F (at 3:30 PM)
Minimum temperature yesterday: 75 °F (at 5:30 AM)
Average temperature yesterday: 93 °F

Past Weeks' High & Low Weather Summary

 TemperatureHumidityPressure
High109 °F (Aug 21, 3:30 PM)83% (Aug 30, 6:30 AM)29.98 "Hg (Aug 30, 6:30 AM)
Low70 °F (Aug 30, 6:30 AM)2% (Aug 25, 12:30 AM)29.65 "Hg (Aug 22, 6:30 PM)
Average91 °F32%29.78 "Hg
* Reported Aug 19 5:30 AM — Sep 3 5:30 AM, Behbahan, Weather by CustomWeather, © 2014

Note: Actual official high and low records may vary slightly from our data, if they occured in-between our weather recording intervals... More about our weather records

Advertising

Behbahan weather history for previous 24 hours

 ConditionsComfort  
Time TempWeatherWind HumidityBarometerVisibility
5:30 AM
Sep 3
79 °FClear.No wind39%29.74 "Hg10 mi
4:30 AM79 °FClear.No wind42%29.74 "Hg10 mi
3:30 AM81 °FClear.No wind39%29.74 "Hg10 mi
2:30 AM84 °FClear.No wind33%29.74 "Hg10 mi
1:30 AM88 °FClear.No wind27%29.77 "Hg10 mi
12:30 AM91 °FClear.No wind24%29.77 "Hg10 mi
10:30 PM
Sep 2
93 °FClear.No wind21%29.74 "Hg10 mi
9:30 PM95 °FClear.5 mph18%29.74 "Hg10 mi
8:30 PM97 °FSunny.7 mph14%29.71 "Hg10 mi
7:30 PM99 °FSunny.7 mph16%29.71 "Hg10 mi
6:30 PM104 °FPassing clouds.No wind11%29.68 "HgN/A
5:30 PM106 °FPassing clouds.7 mph11%29.68 "HgN/A
4:30 PM106 °FPassing clouds.12 mph11%29.68 "HgN/A
3:30 PM106 °FPassing clouds.7 mph9%29.71 "HgN/A
2:30 PM104 °FSunny.5 mph9%29.71 "Hg10 mi
12:30 PM102 °FSunny.14 mph10%29.77 "Hg10 mi
11:30 AM100 °FSunny.14 mph10%29.77 "Hg10 mi
10:30 AM99 °FSunny.12 mph13%29.80 "Hg10 mi
9:30 AM84 °FSunny.No wind31%29.77 "Hg10 mi
8:30 AM81 °FSunny.No wind39%29.74 "Hg10 mi
7:30 AM75 °FClear.No wind57%29.74 "Hg10 mi
6:30 AM75 °FClear.No wind54%29.71 "Hg10 mi
Weather by CustomWeather, © 2014

See weather overviewHow to use our weather pages